Other Public Products
Issued by NWS Grand Forks, ND

Home | Current Version | Previous Version | Text Only | Print | Product List | Glossary Off
Versions: 1 2 3 4 5 6 7 8 9 10 11 12 13 14 15 16 17 18 19 20 21 22 23 24 25 26 27 28 29 30 31 32 33 34 35 36 37 38 39 40 41 42 43 44 45 46 47 48 49 50

000
FPUS83 KFGF 211531
OPUFGF
PRAIRIE TO PINES WEATHER ROUNDUP
NATIONAL WEATHER SERVICE EASTERN NORTH DAKOTA/GRAND FORKS ND
1000 AM CDT SAT OCT 21 2017

 **SATELLITE DATA USED TO AUGMENT SKY COVER AT AUTOMATED STATIONS**
 *****  WEATHER ACROSS EASTERN NORTH DAKOTA  *****

CITY           SKY/WX    TMP DP  RH WIND       PRES   REMARKS
GRAND FORKS    PTSUNNY   62  43  49 SW8       29.42R
GRAND FORKS AF PTSUNNY   59  40  49 S12       29.44R
GRAND CITY NWS NOT AVBL
BUXTON           N/A     62  44  52 W9          N/A
DEVILS LAKE    FAIR      51  41  68 W23       29.43R
FARGO          CLOUDY    61  45  55 W9        29.47R
WAHPETON ARPT  NOT AVBL
$$

 *****  WEATHER ACROSS CENTRAL AND WESTERN NORTH DAKOTA  *****

CITY           SKY/WX    TMP DP  RH WIND       PRES   REMARKS
JAMESTOWN      FAIR      53  40  61 W20G30    29.49R
BISMARCK       LGT RAIN  47  43  86 W20G26    29.57R
MINOT          FAIR      50  39  66 W17G31    29.47R
MINOT AFB      FAIR      48  39  69 W23G29    29.44R
GARRISON         N/A     48  39  71 W20G29    29.53R
WILLISTON      CLOUDY    46  38  73 W22G31    29.57
DICKINSON      CLOUDY    47  35  63 W25G37    29.60R
HETTINGER      FAIR      46  29  51 W29G38    29.65R
$$

 *****  OTHER OBSERVATIONS NORTHEAST NORTH DAKOTA  *****

CITY           SKY/WX    TMP DP  RH WIND       PRES   REMARKS
WALHALLA       FAIR     N/A N/A N/A W8        29.35R
LANGDON        FAIR      54  41  62 W25       29.37R
CAVALIER       FAIR      55  43  62 SW7       29.36R
GRAFTON        FAIR      57  39  51 SW16      29.43R
CANDO          FAIR      54  39  58 W25G35    29.42R
FORT TOTTEN      N/A     52  40  64 W10       29.95S
ROLLA          FAIR      50  37  62 W24G32    29.38R
RUGBY          FAIR      50  39  66 W26       29.42F
 ***** THE ABOVE OBSERVATIONS ARE NON NWS ARE NOT QUALITY
        CONTROLLED AND MAY MIS-REPORT RAIN FOR SNOW...
$$

 *****  OTHER OBSERVATIONS SOUTHEAST NORTH DAKOTA *****

CITY           SKY/WX    TMP DP  RH WIND       PRES   REMARKS
COOPERSTOWN    FAIR      55  43  62 W21G26    29.48R
VALLEY CITY    FAIR      55  43  62 W17       29.51R
OAKES          NOT AVBL
GWINNER        SUNNY     57  43  58 W14G21    29.51R
SHEYENNE NWR     N/A     59  47  65 NW8       29.95S
BUFFALO          N/A     57  37  46 W16         N/A
WYNDMERE       NOT AVBL
 ***** THE ABOVE OBSERVATIONS ARE NON NWS ARE NOT QUALITY
       CONTROLLED AND MAY MIS-REPORT RAIN FOR SNOW...
$$

  *****  WEATHER ACROSS NORTHERN MINNESOTA  *****

CITY           SKY/WX    TMP DP  RH WIND       PRES   REMARKS
FLAG ISLAND    CLOUDY    57  54  88 SE21      29.43R
WARROAD        CLOUDY    64  59  82 S18G24    29.44R
ROSEAU         PTSUNNY   66  59  77 S18G33    29.41S
HALLOCK        FAIR      61  46  59 SW14      29.37R
THF RVR FALLS  CLOUDY    64  57  78 S22G30    29.44S
HALSTAD          N/A     61  50  68 W10         N/A
FOSSTON        PTSUNNY   64  55  72 S18G25    29.47R
BAUDETTE       CLOUDY    65  57  75 S17G30    29.48R
WASKISH        CLOUDY    63  57  82 S13G18    29.52R
CROOKSTON      CLOUDY    64  57  77 SW18G26   29.44R
$$
  *****  WEATHER ACROSS CENTRAL AND WEST MINNESOTA  *****

CITY           SKY/WX    TMP DP  RH WIND       PRES   REMARKS
BEMIDJI        CLOUDY    62  56  79 S16       29.52R
PARK RAPIDS    CLOUDY    62  56  80 S20G28    29.54R
WADENA         CLOUDY    63  55  77 S14G20    29.54S
DETROIT LAKES  CLOUDY    63  55  77 S15       29.51R
MOORHEAD       CLOUDY    64  57  77 S12       29.48R
FERGUS FALLS   CLOUDY    63  57  82 S16G23    29.50R
ELBOW LAKE     CLOUDY    62  58  87 S15       29.52S
MORRIS MN      FAIR      66  61  82 S12       29.51S
STAPLES        CLOUDY    61  54  77 S12G18    29.56S
WHEATON        PTSUNNY   64  57  77 SE12      29.51R
$$
  *****  WEATHER ELSEWHERE ACROSS MINNESOTA  *****

CITY           SKY/WX    TMP DP  RH WIND       PRES   REMARKS
DULUTH         LGT RAIN  57  56  96 S21G29    29.70R
INTRNTL FALLS  CLOUDY    64  53  67 S9G18     29.55S
ELY            CLOUDY    61  50  67 S14G20    29.68R
CLOQUET        LGT RAIN  57  55  94 SE10      29.69R
BRAINERD       LGT RAIN  60  56  86 S13G23    29.60S
HIBBING        CLOUDY    60  52  74 S8G16     29.65R
ALEXANDRIA     CLOUDY    63  57  81 S14       29.56R
SAINT CLOUD    LGT RAIN  59  59 100 SE18G25   29.62S
MINNEAPOLIS    CLOUDY    61  60  97 S15G25    29.68S
$$

  *****  WEATHER ACROSS SOUTH DAKOTA  *****

CITY           SKY/WX    TMP DP  RH WIND       PRES   REMARKS
SIOUX FALLS    PTSUNNY   68  63  84 S21G26    29.53R
BROOKINGS      CLOUDY    64  60  87 S14       29.52S
WATERTOWN      CLOUDY    62  60  93 S8        29.50R
HURON          CLOUDY    54  43  66 NW18      29.56R
SISSETON         N/A     64  59  83 S7        29.48R
ABERDEEN       FAIR      55  44  66 NW22G31   29.54R
MITCHELL       CLOUDY    57  43  59 NW25G32   29.56R
PIERRE         LGT RAIN  49  42  77 NW20G31   29.64R
MOBRIDGE       CLOUDY    50  43  77 NW21G26   29.58S
RAPID CITY     FAIR      48  24  39 NW16      29.77R
$$

  *****  SOME WEATHER IN NEARBY STATES *****

CITY           SKY/WX    TMP DP  RH WIND       PRES   REMARKS
GLASGOW MT     CLOUDY    43  39  86 W18G28    29.66R
GREAT FALLS MT FAIR      38  25  59 SW10      29.85R
CHEYENNE WY    FAIR      38  17  42 W26G39    29.94R
SCOTTSBLUFF NE FAIR      45  22  40 W16G24    29.90R
OMAHA NE       PTSUNNY   69  61  75 S24G32    29.65F
DES MOINES IA  CLOUDY    66  58  75 S17       29.78F
DAVENPORT IA   FAIR      68  53  58 S18G29    29.98R
CHICAGO IL     CLOUDY    64  50  60 S12       30.06F
EAU CLAIRE WI  CLOUDY    59  56  89 S13G21    29.78F
LA CROSSE WI   PTSUNNY   64  56  75 S14       29.85F
$$

  *****  SOME NATIONAL WEATHER *****

CITY           SKY/WX    TMP DP  RH WIND       PRES   REMARKS
LA GUARDIA NY  FAIR      68  46  45 CALM      30.33S
RALEIGH NC     FAIR      70  53  54 E5        30.35S
ATLANTA GA     PTSUNNY   66  56  70 E5        30.31S
NEW ORLEANS LA PTSUNNY   80  73  79 E13       30.08R
OKLAHOMA CITY  PTSUNNY   71  65  81 S18G28    29.86R
ALBUQUERQUE NM FAIR      57  36  45 W15G23    30.01R
SALT LAKE CITY FAIR      42  32  67 SE3       30.19R
LOS ANGELES CA FAIR      63  43  48 VRB5      30.03R
BOISE ID       FAIR      38  32  79 SE8       30.13S
SEATTLE WA     LGT RAIN  45  43  93 SE7       29.78F FOG
$$

*** WEATHER ACROSS MANITOBA...SASKATCHEWAN AND ONTARIO ***
                ***ONTARIO***

CITY           SKY/WX    TMP DP  RH WIND       PRES   REMARKS
GERALDTON      PTSUNNY   59  48  67 S13       29.80F
THUNDER BAY    PTSUNNY   63  50  63 S9        29.76S
SIOUX LOOKOUT  PTSUNNY   61  52  72 S10       29.57S
TORONTO        CLOUDY    63  52  67 S5        30.25S
BIG TROUT LK   MOSUNNY   41  36  81 SE15G23   29.65F
PICKLE LAKE    CLOUDY    55  46  71 S14G21    29.62S
DRYDEN         PTSUNNY   63  54  72 S16G24    29.54S
KENORA         PTSUNNY   63  55  77 S17G28    29.46S
$$
                *** MANITOBA***

CITY           SKY/WX    TMP DP  RH WIND       PRES   REMARKS
BRANDON        PTSUNNY   48  39  71 W16G24    29.31R
DAUPHIN        SUNNY     55  48  76 W12       29.21R
ISLAND LAKE    MOSUNNY   55  46  71 SE12      29.36
PILOT MOUND      N/A     52  39  62 W8          N/A
THE PAS        PTSUNNY   41  37  87 N12       29.24F
THOMPSON       MOSUNNY   41  36  81 NE7       29.30S
WINNIPEG       MOSUNNY   63  55  77 S23G29    29.29S
LYNN LAKE      FOG       34  34 100 NE5       29.38R VSB 3/4
CHURCHILL      LGT RAIN  36  34  93 SE22G29   29.56S
GILLAM         CLOUDY    41  34  75 SE9G17    29.42F
$$
                ***SASKATCHEWAN***

CITY           SKY/WX    TMP DP  RH WIND       PRES   REMARKS
ESTEVAN        PTSUNNY   45  37  76 W17       29.46R
KINDERSLEY     MOCLDY    39  34  81 W14G21    29.60R
LLOYDMINSTER   CLOUDY    37  32  81 W15G22    29.56R
PRINCE ALBERT  CLOUDY    41  36  81 NW13      29.42R
REGINA         CLOUDY    45  39  81 W21G26    29.42R
YORKTON        CLOUDY    43  39  87 W15G22    29.30R


USA.gov is the U.S. government's official web portal to all federal, state and local government web resources and services.